This is the latest recevied weather packets stored in our database for station/object KJ5BMY-13. If no packets are shown the sender has not sent any weather packets the latest 10 day(s).
| Time | Temp. | Humidity | Pressure | Rain* | Wind** | Luminosity | Snow |
|---|---|---|---|---|---|---|---|
| 1778088688 | 13.33° C | 86% | 1016.7 hPa | 0 mm | - | - | - |
| 1778088385 | 13.89° C | 87% | 1016.6 hPa | 0 mm | - | - | - |
| 1778088081 | 13.33° C | 86% | 1016.4 hPa | 0 mm | - | - | - |
| 1778087779 | 13.33° C | 86% | 1016.7 hPa | 0 mm | - | - | - |
| 1778087477 | 13.33° C | 85% | 1016.6 hPa | 0 mm | - | - | - |
| 1778087174 | 13.33° C | 85% | 1016.5 hPa | 0 mm | - | - | - |
| 1778086871 | 13.33° C | 85% | 1016.1 hPa | 0 mm | - | - | - |
| 1778086569 | 13.33° C | 85% | 1016.5 hPa | 0 mm | - | - | - |
| 1778086265 | 13.33° C | 86% | 1016.6 hPa | 0 mm | - | - | - |
| 1778085963 | 13.33° C | 85% | 1016.7 hPa | 0 mm | - | - | - |
| 1778085660 | 13.33° C | 85% | 1016.6 hPa | 0 mm | - | - | - |
| 1778085355 | 13.89° C | 84% | 1016.7 hPa | 0 mm | - | - | - |
| 1778085052 | 14.44° C | 84% | 1017.4 hPa | 0 mm | - | - | - |
| 1778084748 | 14.44° C | 84% | 1017 hPa | 0 mm | - | - | - |
| 1778084445 | 15° C | 83% | 1017.2 hPa | 0 mm | - | - | - |
| 1778084143 | 14.44° C | 85% | 1017.2 hPa | 0 mm | - | - | - |
| 1778083839 | 13.89° C | 86% | 1016.7 hPa | 0 mm | - | - | - |
| 1778083537 | 13.33° C | 87% | 1016.9 hPa | 0 mm | - | - | - |
| 1778083234 | 13.33° C | 88% | 1016.2 hPa | 0 mm | - | - | - |
| 1778082933 | 13.33° C | 89% | 1016.2 hPa | 1.78 mm | - | - | - |
| 1778081829 | 12.78° C | 82% | 1018.8 hPa | 0 mm | - | - | - |
| 1778081527 | 12.78° C | 82% | 1018.7 hPa | 0 mm | - | - | - |
| 1778081223 | 12.78° C | 81% | 1018.5 hPa | 0 mm | - | - | - |
| 1778080921 | 12.78° C | 82% | 1017.9 hPa | 0 mm | - | - | - |
| 1778080620 | 12.78° C | 82% | 1017.9 hPa | 0 mm | - | - | - |
* Rain latest hour (hover to see other rain measurements)
** Current wind speed in m/s (hover to see current wind gust speed)